Location: Trebic
(49.2170°N, 15.8830°E)
Time: 07:55:33
(UTC+02:00)

Transit 2A Rocket - Pass Details

Date: 25 July 2019
Orbit: 590 x 913 km, 66.7° (Epoch: 21 August)

Event Time Altitude Azimuth Distance (km) Brightness Sun altitude
Rises 09:45:43 0° 325° (NW) 3,256 7.9 41.0°
Reaches altitude 10° 09:48:44 10° 340° (NNW) 2,263 7.2 41.5°
Maximum altitude 09:52:44 22° 31° (NNE) 1,504 6.9 42.1°
Drops below altitude 10° 09:56:28 10° 83° (E) 2,095 8.2 42.6°
Sets 09:59:08 0° 99° (E) 2,953 8.8 43.0°
